Regional Weather Roundup
Issued by NWS Pendleton, OR

Home | Current Version | Previous Version | Text Only | Print | Product List | Glossary On
Versions: 1 2 3 4 5 6 7 8 9 10 11 12 13 14 15 16 17 18 19 20 21 22 23 24 25 26 27 28 29 30 31 32 33 34 35 36 37 38 39 40 41 42 43 44 45 46 47 48 49 50
000
ASUS46 KPDT 291925
RWRPDT
PENDLETON REGIONAL WEATHER ROUNDUP
NATIONAL WEATHER SERVICE PENDLETON OREGON
1100 AM PST THU JAN 29 2015

NOTE: FAIR INDICATES FEW OR NO CLOUDS BELOW 12,000 FEET WITH NO
SIGNIFICANT WEATHER AND/OR OBSTRUCTIONS TO VISIBILITY.

# INDICATES UNOFFICIAL STATION AND DATA

WAZ520-292010-
EAST SLOPES OF WASHINGTON CASCADES

CITY            SKY/WX      TMP DP  RH  WIND    PRES   REMARKS
#BUMPING DAM    N/A         31  N/A N/A CALM    N/A
#CLE ELUM HS    N/A         31  30  96  CALM    30.35F
#CLE ELUM LAKE  N/A         32  31  96  CALM    30.43F
#CLIFFDEL 2NW   N/A         34  31  89  CALM    N/A
#GLENWOOD       N/A         34  33  96  CALM    30.46F
#MANASTASH CYN  N/A         32  28  85  N2      30.32F
#NELSON         N/A         30  29  96  CALM    30.50F
#NELSON 3SW     N/A         29  28  96  CALM    30.70F
#NILE           N/A         34  33  96  CALM    29.71F
#RONALD 2NW     N/A         32  24  72  CALM    30.22F
#TEANAWAY 4NE   N/A         30  30  100 CALM    N/A
#TROUT LAKE 1NE N/A         34  33  96  CALM    30.45F
$$

WAZ521-292010-
SIMCOE HIGHLANDS

CITY            SKY/WX      TMP DP  RH  WIND    PRES   REMARKS
#BICKLETON HS   N/A         30  29  96  CALM    N/A
#CENTERVILLE 4W N/A         36  35  96  SE2     30.16S
#CENTERVILLE 1SWN/A         33  31  92  CALM    30.47F
#GOLDENDALE     N/A         34  33  96  CALM    N/A
#GOLDENDALE 1NE N/A         35  31  85  E3      N/A
#GOLDENDALE 1S  N/A         32  32  100 CALM    30.39S
#GOLDENDALE 5WNWN/A         35  32  89  CALM    30.47
#GOODNOE HILLS  N/A         37  33  85  SE3     N/A
#LYLE 6NE       N/A         35  33  92  E1      30.45S
$$

WAZ026-292010-
KITTITAS VALLEY

CITY            SKY/WX      TMP DP  RH  WIND    PRES   REMARKS
ELLENSBURG AP   CLOUDY      33  30  89  S3      30.44F FOG
#ELLENSBURG CWU N/A         31  30  96  CALM    30.46S
#ELLENSBURG 3NE N/A         30  29  96  SE1     30.42S
#ELLENSBURG 1E  N/A         33  31  92  CALM    N/A
#KITTITAS 4N    N/A         33  31  92  S1      28.73S
#KITTITAS 3S    N/A         31  30  96  CALM    30.50S
#THORP 6N       N/A         29  28  96  E3      30.50S
$$

WAZ027-292010-
YAKIMA VALLEY

CITY            SKY/WX      TMP DP  RH  WIND    PRES   REMARKS
SUNNYSIDE AP    N/A         34  32  92  CALM    30.50R FOG
YAKIMA AIRPORT  CLOUDY      37  33  85  CALM    30.48S
YAKIMA-VAGABOND CLOUDY      35  35  100 N2      30.46S
#DONALD 2NE     N/A         35  34  96  CALM    29.32S
#GRANDVIEW      N/A         35  33  92  W1      30.54S
#MABTON         N/A         35  35  100 CALM    30.50R
#MOXEE 2E       N/A         38  34  85  CALM    30.42F
#NACHES 2SW     N/A         32  31  96  E1      30.43S
#OUTLOOK DOT    N/A         N/A N/A N/A W2      N/A
#SELAH 8E       N/A         32  32  100 CALM    N/A
#TERRACE HTS    N/A         34  33  96  CALM    30.50S
#TOPPENISH      N/A         34  33  96  CALM    30.45R
#WAPATO 4NE     N/A         35  34  96  CALM    29.32S
#WEST VALLEY    N/A         34  33  96  CALM    30.51S
#W YAKIMA       N/A         34  33  96  SE1     30.53F
#WHITE SWAN 5E  N/A         34  33  96  CALM    30.54S
#WILEY CITY 3W  N/A         31  28  88  CALM    30.48S
$$

WAZ028-292010-
LOWER COLUMBIA BASIN...WASHINGTON

CITY            SKY/WX      TMP DP  RH  WIND    PRES   REMARKS
HANFORD         CLOUDY      38  33  82  NW8     30.49S
PASCO           CLOUDY      40  36  85  NW6     30.51S
PROSSER AWOS    N/A         36  36  100 SW5     30.53S
RICHLAND AWOS   CLOUDY      39  36  89  W3      30.51S
#BENTON CITY    N/A         37  35  92  W7      30.43R
#CONNELL 5N     N/A         35  34  96  E2      30.50S
#CONNELL 5NW    N/A         35  35  100 NW2     30.46F
#ELTOPIA 6NW    N/A         37  37  100 NW1     29.43S
#KAHLOTUS       N/A         35  35  100 CALM    30.50S
#KENNEWICK 3S   N/A         37  36  96  CALM    30.53S
#PATERSON       N/A         39  36  89  CALM    30.50S
#PROSSER        N/A         35  34  96  W3      30.53S
#SAGEMOOR 2W    N/A         38  36  92  CALM    30.36S
#TOUCHET 2S     N/A         38  37  96  CALM    30.50S
#WEST PASCO     N/A         40  36  85  W1      30.49F
$$

WAZ029-292010-
FOOTHILLS OF THE BLUES...WASHINGTON

CITY            SKY/WX      TMP DP  RH  WIND    PRES   REMARKS
WALLA WALLA AP  CLOUDY      36  33  89  SE5     30.46S FOG
#DAYTON SCHOOL  N/A         35  30  82  W1      30.43S
#LOWDEN 2SE     N/A         38  37  96  CALM    30.46S
#PLEASANT VIEW 1N/A         34  34  100 CALM    30.54F
#PRESCOTT       N/A         36  35  96  CALM    30.50S
#SUDBURY        N/A         41  N/A N/A CALM    N/A
#WHITMAN COLLEGEN/A         35  34  96  CALM    30.56S
#WAITSBURG 5S   N/A         33  33  100 CALM    30.60S
#WAITSBURG 8N   N/A         34  29  82  SE3     30.30S
#WALLA WALLA 5E N/A         36  35  96  S1      N/A
#WALLA WALLA U  N/A         37  36  96  CALM    30.51S
#WHITMAN MISSIONN/A         37  36  96  CALM    30.53R
$$

WAZ030-292010-
BLUE MOUNTAINS...WASHINGTON

CITY            SKY/WX      TMP DP  RH  WIND    PRES   REMARKS
#DIXIE 5SE      N/A         30  29  96  CALM    30.31S
#SKI BLUEWOOD   N/A         39  32  76  CALM    30.32F
$$

ORZ009-041-WAZ024-292010-
COLUMBIA RIVER GORGE

CITY            SKY/WX      TMP DP  RH  WIND    PRES   REMARKS
HOOD RIVER AP   CLOUDY      41  34  76  E6      30.48S
THE DALLES AP   CLOUDY      43  35  73  E8      30.49F
#ARLINGTON AIRPON/A         37  36  96  E1      30.02S
#ARLINGTON HS   N/A         40  37  89  CALM    30.42S
#CELILO DOT     N/A         42  32  67  NE1     N/A
#LYLE           N/A         42  36  79  E5      30.51S
#MOSIER 1S      N/A         40  32  73  CALM    30.47S
#MURDOCK        N/A         44  38  79  E3      30.52S
#RUFUS DOT      N/A         N/A N/A N/A CALM    N/A

$$

ORZ510-292010-
NORTH CENTRAL OREGON

CITY            SKY/WX      TMP DP  RH  WIND    PRES   REMARKS
#CHENOWITH 1W   N/A         34  34  100 SE8     N/A
#COW CYN RST AREN/A         35  35  100 W2      N/A
#DUFUR 9E       N/A         32  32  100 E5      30.53R
#KENT DOT       N/A         32  29  89  CALM    N/A
#MAUPIN SCHOOL  N/A         40  34  79  CALM    30.45S
#MORO SCHOOL    N/A         34  34  100 N2      30.42S
#SHANIKO 5WSW   N/A         33  30  89  NW6     N/A
#SHANIKO 4NW    N/A         32  32  100 NW3     30.35R
#TYGH VALLEY 2NEN/A         39  35  85  CALM    30.47S
#WAPANITIA AIRPON/A         35  34  96  CALM    30.48R
#WASCO DOT      N/A         37  33  85  E2      N/A
#WASCO AIRPORT  N/A         35  33  92  E5      N/A
#WASCO 5NE      N/A         34  33  96  CALM    30.50S
$$

ORZ511-292010-
CENTRAL OREGON

CITY            SKY/WX      TMP DP  RH  WIND    PRES   REMARKS
BEND AIRPORT    CLOUDY      37  37  100 CALM    30.35F
MADRAS AIRPORT  N/A         37  37  100 N5      30.41S FOG
PRINEVILLE AP   CLOUDY      37  37  100 CALM    30.36F FOG
REDMOND AIRPORT CLOUDY      37  36  96  E3      30.35F
#BEND 1SW       N/A         38  36  92  S2      N/A
#BEND-AWBREY    N/A         39  39  100 CALM    30.36F
#BEND-KIM LN    N/A         39  38  96  CALM    30.32S
#CROOKED RVR RANN/A         38  37  96  E9      30.39F
#CULVER         N/A         37  35  92  W1      30.34S
#LAKE BILLY CHINN/A         37  37  100 N2      30.44F
#POWELL BUTTE 3EN/A         37  37  100 E2      N/A
#POWELL BUTTE   N/A         40  36  85  NE1     29.95F
#PRINEVILLE 3N  N/A         38  36  92  CALM    30.36F
#WARM SPRINGS   N/A         41  38  89  CALM    30.38S

$$


ORZ509-292010-
EAST SLOPES OF OREGON CASCADES

CITY            SKY/WX      TMP DP  RH  WIND    PRES   REMARKS
#BLUE BOX PASS  N/A         32  -17 11  CALM    N/A
#CAMP SHERMAN   N/A         38  36  92  CALM    30.48R
#LA PINE DOT    N/A         33  32  96  N1      N/A
#LA PINE 4NW    N/A         33  30  89  CALM    30.45F
#LAVA BUTTE DOT N/A         36  35  96  CALM    N/A
#MT BACHELOR-MIDN/A         35  28  75  NE12    N/A    WCI 27
#SISTERS AIRPOR N/A         37  37  100 N1      30.17S
#SISTERS ODOT   N/A         38  N/A N/A CALM    N/A
#SISTERS 1NW    N/A         38  36  92  E8      N/A
#SISTERS 3N     N/A         39  34  82  CALM    30.34S
#SUNRIVER       N/A         36  35  96  SW1     30.27F
#TUMALO 3W      N/A         37  36  96  CALM    30.26F
#WANOGA BUTTE D N/A         44  29  55  NW2     N/A

$$

ORZ044-292010-
LOWER COLUMBIA BASIN...OREGON

CITY            SKY/WX      TMP DP  RH  WIND    PRES   REMARKS
HERMISTON       CLOUDY      38  36  92  N3      30.48S FOG
#BOARDMAN SCHOOLN/A         39  36  89  CALM    30.51S
#BOARDMAN 8SW   N/A         38  37  96  N3      30.51R
#ECHO 8SW       N/A         38  38  100 CALM    30.45S
#IONE SCHOOL    N/A         37  25  61  CALM    30.44R
#IRRIGON 4NW    N/A         39  39  100 SE1     N/A
#UMATILLA SCHOOLN/A         37  37  100 CALM    30.54F
#UMATILLA       N/A         39  35  85  CALM    30.47F
$$

ORZ507-292010-
NORTHERN FOOTHILLS OF THE BLUES

CITY            SKY/WX      TMP DP  RH  WIND    PRES   REMARKS
PENDLETON AIRPT CLOUDY      34  31  89  CALM    30.44F
#ADAMS 3WNW     N/A         33  32  96  CALM    30.50S
#ATHENA         N/A         33  32  96  CALM    30.53S
#CAYUSE         N/A         33  31  92  CALM    30.49S
#HELIX SCHOOL   N/A         34  33  96  CALM    30.48F
#HELIX 3N       N/A         33  32  96  NW1     30.37S
#HELIX 6SW      N/A         33  32  96  CALM    30.42S
#HOLDMAN 5SE    N/A         35  34  96  CALM    30.43F
#HOLDMAN 6E     N/A         33  32  96  S1      30.30S
#M-F FERNDALE   N/A         36  35  96  CALM    30.46S
#M-F GROVE ELEM N/A         36  32  85  CALM    30.44S
#M-FREEWATER 5SEN/A         34  31  89  CALM    30.43F
#PENDLETON DNTN N/A         37  33  85  CALM    29.26S
#PDT AQUATIC CTRN/A         37  34  89  CALM    30.42F
#PENDLETON 5NE  N/A         34  33  96  CALM    30.39F
#PDT SUNRIDGE   N/A         35  32  89  CALM    30.47S
#PENDLETON 7NW  N/A         36  32  85  CALM    25.92
#TUTUILLA       N/A         35  32  89  CALM    30.47F
#UMAPINE 2E     N/A         37  36  96  CALM    30.45S
#WESTON SCHOOL  N/A         32  30  92  CALM    30.41S

$$

ORZ508-292010-
SOUTHERN FOOTHILLS OF THE BLUES

CITY            SKY/WX      TMP DP  RH  WIND    PRES   REMARKS
LEXINGTON       CLOUDY      36  36  100 N8      30.45S
#AJAX           N/A         35  30  82  VRB2    30.31S
#CONDON SCHOOL  N/A         32  31  96  CALM    30.31S
#CONDON 5W      N/A         31  30  96  CALM    30.32S
#HEPPNER EOC    N/A         35  33  92  CALM    30.42S
#HEPPNER 4NE    N/A         32  31  96  NE1     30.45S
#LEXINGTON 2SE  N/A         38  34  85  W1      30.40S
#MIKKALO        N/A         35  35  100 E2      30.42S
#OLEX 4N        N/A         35  34  96  CALM    30.45S
#RUGGS 5NE      N/A         36  30  79  CALM    30.52S
#RUGGS 2SW      N/A         32  31  96  E1      30.47F

$$

ORZ502-503-292010-
BLUE MOUNTAINS

CITY            SKY/WX      TMP DP  RH  WIND    PRES   REMARKS
MEACHAM         MOCLDY      41  32  70  CALM    30.35S
#BATTLE MTN DOT N/A         37  34  89  S8      N/A
#HARDMAN 10S    N/A         39  33  79  E5      30.50F
#HEPPNER 15SE   N/A         42  36  79  W1      30.23S
#LADD CYN SMT   N/A         36  30  79  E10     N/A
#LADD CREEK ODOTN/A         39  33  79  SW7     N/A
#LONG CREEK HS  N/A         41  39  93  CALM    30.29F
#N POWDER DOT   N/A         38  33  82  SW2     N/A
#PIKES PEAK     N/A         37  31  79  CALM    27.99S
#TOLLGATE       N/A         36  31  82  SE1     30.22S
#TROY SCHOOL    N/A         37  33  85  W3      30.35F
#UKIAH          N/A         33  32  96  CALM    30.50F
#WESTON 4E      N/A         36  32  85  CALM    30.37S
$$

ORZ505-292010-
JOHN DAY BASIN

CITY            SKY/WX      TMP DP  RH  WIND    PRES   REMARKS
JOHN DAY        PTCLDY      47  34  60  E10     30.34F
#JOHN DAY KJDY  N/A         46  39  76  E2      30.35F
#DAYVILLE SCHOOLN/A         43  33  67  CALM    30.32F
#MITCHELL       N/A         35  35  100 CALM    30.48F
#MONUMENT HS    N/A         43  34  70  CALM    30.37F
#MT. VERNON 5SE N/A         46  35  65  E2      30.29F
#WINLOCK        N/A         45  37  73  W2      30.41F
$$

ORZ506-292010-
OCHOCO AND JOHN DAY HIGHLANDS

CITY            SKY/WX      TMP DP  RH  WIND    PRES   REMARKS
#BUCK CREEK DOT N/A         44  44  100 SE14    N/A    WCI 37
#HORSE RIDGE DO N/A         40  34  79  NW7     N/A
#KEYES SMT DOT  N/A         41  34  76  E7      N/A
#PAULINA SCHOOL N/A         54  36  50  CALM    30.30F
#PINE MTN OBS   N/A         39  33  79  S5      N/A
#PRAIRIE CITY   N/A         44  32  62  NE3     30.41F
#SENECA         N/A         36  N/A N/A N1      N/A
#SENECA 9NW     N/A         39  34  82  SW1     30.44F
$$

ORZ049-292010-
GRANDE RONDE VALLEY

CITY            SKY/WX      TMP DP  RH  WIND    PRES   REMARKS
LA GRANDE       MOCLDY      43  30  60  S15     30.39F WCI 36
#COVE           N/A         41  35  79  N2      30.03S
#COVE SCHOOL    N/A         41  36  82  CALM    30.34F
#COVE 6NW       N/A         40  36  85  S6      30.53F
#ELGIN 3N       N/A         43  33  67  CALM    30.18F
#ELGIN 1E       N/A         35  31  85  CALM    N/A
#IMBLER SCHOOL  N/A         41  35  79  S2      30.32F
#ISLAND CITY 4N N/A         44  44  100 CALM    30.31S
#LADD CYN DOT   N/A         41  32  70  S20G28  N/A    WCI 32
#UNION 1S       N/A         41  34  76  S10     30.39F
$$

ORZ050-292010-
WALLOWA COUNTY

CITY            SKY/WX      TMP DP  RH  WIND    PRES   REMARKS
JOSEPH AIRPORT  MOCLDY      36  25  64  CALM    30.38S
#ENTERPRISE AP  N/A         36  28  72  CALM    30.27F
#ENTERPRISE HS  N/A         35  32  89  CALM    30.35F
#IMNAHA SCHOOL  N/A         41  30  65  S1      30.38F
#IMNAHA 10S     N/A         40  29  64  NE1     30.35F
#JOSEPH 3N      N/A         34  33  96  CALM    30.37S
#JOSEPH 3W      N/A         35  22  59  CALM    30.14F
#LOSTINE        N/A         34  28  78  CALM    30.30S
#MT HOWARD 8000 N/A         37  -9  13  CALM    30.30F
#PROMISE 1S     N/A         36  32  85  CALM    30.59S
#SHEEP RDG 7000 N/A         36  -6  16  CALM    30.41F
#WALLOWA SCHOOL N/A         33  30  89  CALM    31.49F



$$



USA.gov is the U.S. government's official web portal to all federal, state and local government web resources and services.